Location: Buckenweiler
(49.0667°N, 10.2500°E)
Time: 20:14:41
(UTC+00:00)

Cosmos 2084 Rocket - Pass Details

Date: 18 January 2026
Orbit: 541 x 571 km, 62.8° (Epoch: 15 February)

Event Time Altitude Azimuth Distance (km) Brightness Sun altitude
Exits shadow 05:51:02 17° 305° (NW) 1,494 4.9 -11.9°
Maximum altitude 05:54:09 52° 234° (SW) 710 3.6 -11.5°
Drops below altitude 10° 05:58:15 10° 157° (SSE) 1,869 6.6 -10.8°
Sets 06:00:31 0° 153° (SSE) 2,764 7.7 -10.5°
